カタログに戻る

STARLINK-35320

運用中通信VLEO
NORAD 65834·PAYLOAD·🇺🇸 United States

打ち上げ Sep 29, 2025 から Vandenberg Space Force Base

Loading…

次のパス (今後24時間)

TLE

最新Source: CelesTrak SupGP

元期: Sep 14, 2026, 22:57 UTC

1 65834C 25221M   26257.95673611  .00058829  00000+0  17383-2 0  2570
2 65834  53.1564 287.7223 0001215  86.9243 220.5378 15.34358065    12

AllMySatでSTARLINK-35320をリアルタイム追跡

Download on the App Store